Weather History for Guymon, OK

Change the Weather History Date:

Monday, March 12, 2012

  Actual Average Record
Temperature  
Mean Temperature 58 °F 45 °F  
Max Temperature 79 °F 60 °F 85 °F (2005)
Min Temperature 37 °F 30 °F 19 °F (2009)
Degree Days  
Heating Degree Days 7 20  
Month to date heating degree days 201 258  
Since 1 July heating degree days 3494 3725  
Cooling Degree Days 0 0  
Month to date cooling degree days 0 0  
Year to date cooling degree days 0 0  
Growing Degree Days 7 (Base 50)    
Moisture  
Dew Point 27 °F    
Average Humidity 45    
Maximum Humidity 79    
Minimum Humidity 11    
Precipitation  
Precipitation 0.00 in 0.05 in 0.15 in (1999)
Month to date precipitation 0.18 0.51  
Year to date precipitation 0.51 1.38  
Snow  
Snow 0.00 in - - ()
Month to date snowfall T  
Since 1 July snowfall 9.1  
Snow Depth 0.00 in    
Sea Level Pressure  
Sea Level Pressure 29.81 in    
Wind  
Wind Speed 8 mph (SW)    
Max Wind Speed 18 mph    
Max Gust Speed 23 mph    
Visibility 10 miles    
Events      
T = Trace of Precipitation, MM = Missing Value Source: NWS Daily Summary

Daily Weather History Graph

Daily Weather History Graph

Search for Another Location

Airport:

Trip Planner

Search our weather history database for the weather conditions in past years. The results will help you decide how hot, cold, wet, or windy it might be!

Date:

Astronomy

Mar. 12, 2012 Rise Set
Actual Time 8:00 AM CDT 7:51 PM CDT
Civil Twilight 7:34 AM CDT 8:16 PM CDT
Nautical Twilight 7:04 AM CDT 8:46 PM CDT
Astronomical Twilight 6:34 AM CDT 9:17 PM CDT
Moon 12:07 AM CDT (3/12) 10:32 AM CDT (3/12)
Length of Visible Light 12h 42m
Length of Day
11h 50m
Waning Gibbous, 76% of the Moon is Illuminated
Mar 12
Waning Gibbous
Mar 14
Last Quarter
Mar 22
New
Mar 30
First Quarter
Apr 6
Full

Hourly Weather History & Observations

Time (CDT) Temp. Windchill Dew Point Humidity Pressure Visibility Wind Dir Wind Speed Gust Speed Precip Events Conditions
12:53 AM 39.9 °F 35.1 °F 34.0 °F 79% 29.70 in 10.0 mi SSW 6.9 mph - N/A   Clear
1:53 AM 44.1 °F 38.6 °F 34.0 °F 68% 29.69 in 10.0 mi WSW 10.4 mph - N/A   Clear
2:53 AM 48.0 °F - 30.9 °F 52% 29.69 in 10.0 mi West 17.3 mph - N/A   Clear
3:53 AM 46.9 °F - 28.9 °F 50% 29.70 in 10.0 mi West 16.1 mph - N/A   Clear
4:53 AM 45.0 °F 37.9 °F 28.9 °F 53% 29.70 in 10.0 mi West 16.1 mph - N/A   Clear
5:53 AM 41.0 °F 37.1 °F 28.0 °F 60% 29.74 in 10.0 mi SW 5.8 mph - N/A   Clear
6:53 AM 39.9 °F 32.1 °F 28.0 °F 63% 29.77 in 10.0 mi WSW 13.8 mph - N/A   Clear
7:53 AM 37.9 °F 34.4 °F 27.0 °F 65% 29.82 in 10.0 mi SSW 4.6 mph - N/A   Clear
8:53 AM 41.0 °F 37.1 °F 28.9 °F 62% 29.86 in 10.0 mi SW 5.8 mph - N/A   Clear
9:53 AM 51.1 °F - 28.9 °F 43% 29.86 in 10.0 mi West 6.9 mph - N/A   Clear
10:53 AM 59.0 °F - 32.0 °F 36% 29.88 in 10.0 mi WNW 8.1 mph - N/A   Clear
11:53 AM 68.0 °F - 33.1 °F 27% 29.89 in 10.0 mi West 5.8 mph - N/A   Clear
12:53 PM 75.0 °F - 25.0 °F 16% 29.87 in 10.0 mi Calm Calm - N/A   Clear
1:53 PM 75.0 °F - 19.9 °F 13% 29.85 in 10.0 mi SSE 4.6 mph - N/A   Clear
2:53 PM 75.9 °F - 21.0 °F 13% 29.82 in 10.0 mi Variable 4.6 mph - N/A   Clear
3:53 PM 77.0 °F - 19.9 °F 12% 29.80 in 10.0 mi Calm Calm - N/A   Clear
4:53 PM 77.0 °F - 19.9 °F 12% 29.81 in 10.0 mi South 6.9 mph - N/A   Clear
5:53 PM 77.0 °F - 21.9 °F 13% 29.82 in 10.0 mi South 11.5 mph - N/A   Clear
6:53 PM 73.9 °F - 23.0 °F 15% 29.83 in 10.0 mi South 10.4 mph - N/A   Clear
7:53 PM 68.0 °F - 27.0 °F 21% 29.87 in 10.0 mi South 5.8 mph - N/A   Clear
8:53 PM 60.1 °F - 28.0 °F 30% 29.88 in 10.0 mi South 5.8 mph - N/A   Clear
9:53 PM 57.9 °F - 27.0 °F 31% 29.88 in 10.0 mi South 4.6 mph - N/A   Clear
10:53 PM 54.0 °F - 26.1 °F 34% 29.88 in 10.0 mi SSW 6.9 mph - N/A   Clear
11:53 PM 50.0 °F - 26.1 °F 39% 29.87 in 10.0 mi SW 8.1 mph - N/A   Clear